Location: Perryvale
(54.4667°N, 113.3833°W)
Time: 00:44:22
(UTC+00:00)

Vanguard 1 - Pass Details

Date: 30 May 2024
Orbit: 652 x 3825 km, 34.2° (Epoch: 13 June)

Event Time Altitude Azimuth Distance (km) Brightness Sun altitude
Rises 05:59:52 0° 254° (WSW) 4,707 13.6 -11.2°
Reaches altitude 10° 06:03:16 10° 241° (WSW) 4,129 13.2 -11.4°
Maximum altitude 06:12:05 25° 192° (SSW) 3,989 12.7 -11.8°
Enters shadow 06:24:02 12° 149° (SSE) 6,009 13.4 -12.3°
Drops below altitude 10° 06:25:04 10° 147° (SSE) 6,219 - -12.4°
Sets 06:31:59 0° 137° (SE) 7,637 - -12.6°
